TimeEDT,TemperatureF,Dew PointF,Humidity,Sea Level PressureIn,VisibilityMPH,Wind Direction,Wind SpeedMPH,Gust SpeedMPH,PrecipitationIn,Events,Conditions,WindDirDegrees,DateUTC
12:12 AM,47.3,39.4,74,29.59,10.0,ENE,8.1,-,N/A,,Mostly Cloudy,70,2012-10-19 04:12:00
12:33 AM,47.5,39.6,74,29.58,10.0,East,9.2,16.1,N/A,,Overcast,80,2012-10-19 04:33:00
12:52 AM,48.0,39.6,73,29.58,10.0,ENE,8.1,17.3,N/A,,Overcast,70,2012-10-19 04:52:00
1:12 AM,47.7,39.6,73,29.57,10.0,ENE,8.1,-,N/A,,Overcast,70,2012-10-19 05:12:00
1:33 AM,47.7,39.9,75,29.57,10.0,East,6.9,16.1,N/A,,Mostly Cloudy,80,2012-10-19 05:33:00
1:52 AM,48.2,39.7,73,29.57,10.0,East,8.1,-,N/A,,Mostly Cloudy,80,2012-10-19 05:52:00
2:12 AM,48.6,39.6,71,29.57,10.0,East,12.7,18.4,N/A,,Overcast,100,2012-10-19 06:12:00
2:33 AM,48.9,39.4,70,29.57,10.0,East,6.9,-,N/A,,Overcast,80,2012-10-19 06:33:00
2:52 AM,48.7,39.4,70,29.57,10.0,East,8.1,18.4,N/A,,Mostly Cloudy,90,2012-10-19 06:52:00
3:12 AM,48.2,39.4,72,29.57,10.0,East,6.9,-,N/A,,Scattered Clouds,80,2012-10-19 07:12:00
3:33 AM,48.2,39.4,72,29.57,10.0,East,6.9,16.1,N/A,,Scattered Clouds,80,2012-10-19 07:33:00
3:52 AM,48.2,39.4,72,29.57,10.0,East,11.5,16.1,N/A,,Mostly Cloudy,100,2012-10-19 07:52:00
4:13 AM,48.2,39.2,71,29.57,10.0,ESE,13.8,23.0,N/A,,Mostly Cloudy,120,2012-10-19 08:13:00
4:33 AM,48.2,39.4,72,29.57,10.0,ESE,15.0,-,N/A,,Mostly Cloudy,120,2012-10-19 08:33:00
4:52 AM,48.4,39.2,71,29.58,10.0,ESE,11.5,24.2,N/A,,Overcast,120,2012-10-19 08:52:00
5:13 AM,48.4,39.2,71,29.58,10.0,ESE,13.8,20.7,N/A,,Overcast,120,2012-10-19 09:13:00
5:33 AM,47.7,40.1,75,29.58,10.0,ESE,17.3,21.9,N/A,Rain,Light Rain,120,2012-10-19 09:33:00
5:52 AM,47.5,40.3,76,29.58,10.0,East,12.7,20.7,N/A,,Overcast,100,2012-10-19 09:52:00
6:13 AM,47.5,40.3,76,29.58,10.0,East,11.5,19.6,N/A,,Overcast,100,2012-10-19 10:13:00
6:32 AM,47.5,40.8,78,29.59,10.0,East,11.5,20.7,N/A,,Drizzle,100,2012-10-19 10:32:00
6:52 AM,47.8,40.6,76,29.59,10.0,ESE,12.7,19.6,N/A,Rain,Light Rain,110,2012-10-19 10:52:00
7:13 AM,47.8,40.6,76,29.59,10.0,ESE,12.7,20.7,N/A,,Light Drizzle,120,2012-10-19 11:13:00
7:32 AM,47.5,41.0,78,29.60,10.0,East,12.7,18.4,N/A,,Light Drizzle,100,2012-10-19 11:32:00
7:53 AM,47.3,40.6,78,29.60,10.0,East,9.2,19.6,N/A,,Overcast,90,2012-10-19 11:53:00
8:13 AM,47.3,40.6,78,29.60,10.0,East,11.5,16.1,N/A,,Light Drizzle,100,2012-10-19 12:13:00
8:32 AM,47.3,40.8,78,29.60,10.0,ENE,8.1,-,N/A,,Overcast,70,2012-10-19 12:32:00
8:53 AM,47.3,40.6,78,29.60,10.0,ENE,6.9,-,N/A,,Overcast,60,2012-10-19 12:53:00
9:12 AM,47.5,41.0,78,29.59,10.0,NE,6.9,-,N/A,,Mostly Cloudy,50,2012-10-19 13:12:00
9:33 AM,47.8,41.2,78,29.59,10.0,NE,6.9,-,N/A,,Scattered Clouds,50,2012-10-19 13:33:00
9:53 AM,48.2,41.2,77,29.59,10.0,ENE,6.9,-,N/A,,Mostly Cloudy,60,2012-10-19 13:53:00
10:12 AM,48.4,41.2,76,29.58,10.0,NE,4.6,-,N/A,,Overcast,50,2012-10-19 14:12:00
10:33 AM,49.3,41.5,75,29.58,10.0,ENE,4.6,-,N/A,,Overcast,60,2012-10-19 14:33:00
10:53 AM,51.3,41.7,70,29.58,10.0,ENE,5.8,-,N/A,,Scattered Clouds,70,2012-10-19 14:53:00
11:12 AM,53.4,41.4,64,29.58,10.0,East,13.8,24.2,N/A,,Mostly Cloudy,90,2012-10-19 15:12:00
11:33 AM,54.5,42.4,64,29.57,10.0,ESE,17.3,24.2,N/A,,Overcast,110,2012-10-19 15:33:00
11:53 AM,54.1,42.3,64,29.57,10.0,East,17.3,26.5,N/A,,Overcast,100,2012-10-19 15:53:00
12:12 PM,53.6,41.9,65,29.57,10.0,East,17.3,25.3,N/A,,Overcast,100,2012-10-19 16:12:00
12:33 PM,54.3,42.1,63,29.57,10.0,ESE,19.6,26.5,N/A,,Overcast,110,2012-10-19 16:33:00
12:53 PM,54.1,41.5,62,29.57,10.0,ESE,20.7,24.2,N/A,,Overcast,110,2012-10-19 16:53:00
1:13 PM,54.5,41.5,62,29.56,10.0,ESE,16.1,25.3,N/A,,Overcast,110,2012-10-19 17:13:00
1:33 PM,53.8,42.1,65,29.55,10.0,East,15.0,20.7,N/A,Rain,Light Rain,100,2012-10-19 17:33:00
1:52 PM,53.8,42.3,65,29.54,10.0,ENE,6.9,18.4,N/A,,Overcast,60,2012-10-19 17:52:00
2:13 PM,52.2,44.4,75,29.54,10.0,ENE,8.1,17.3,N/A,,Light Drizzle,70,2012-10-19 18:13:00
2:33 PM,50.7,45.7,83,29.55,7.0,ENE,8.1,-,N/A,Rain,Rain,70,2012-10-19 18:33:00
2:52 PM,50.0,46.6,88,29.55,4.0,ENE,6.9,-,N/A,Rain,Heavy Rain,70,2012-10-19 18:52:00
3:13 PM,50.0,46.6,88,29.54,7.0,ENE,9.2,-,N/A,Rain,Rain,60,2012-10-19 19:13:00
3:33 PM,49.3,45.9,88,29.54,10.0,ENE,6.9,-,N/A,Rain,Light Rain,70,2012-10-19 19:33:00
3:52 PM,49.1,45.3,87,29.55,10.0,NE,5.8,-,N/A,Rain,Light Rain,50,2012-10-19 19:52:00
4:13 PM,48.7,45.0,87,29.55,10.0,NE,5.8,-,N/A,Rain,Light Rain,50,2012-10-19 20:13:00
4:33 PM,48.6,45.1,88,29.55,10.0,NE,5.8,-,N/A,Rain,Light Rain,50,2012-10-19 20:33:00
4:52 PM,48.7,45.1,87,29.55,10.0,NE,5.8,-,N/A,Rain,Light Rain,50,2012-10-19 20:52:00
5:13 PM,49.5,45.3,86,29.55,10.0,ENE,3.5,-,N/A,,Overcast,70,2012-10-19 21:13:00
5:33 PM,50.0,45.9,86,29.55,10.0,NE,4.6,-,N/A,,Scattered Clouds,50,2012-10-19 21:33:00
5:53 PM,50.5,45.9,84,29.56,10.0,East,8.1,-,N/A,,Scattered Clouds,80,2012-10-19 21:53:00
6:13 PM,50.0,45.7,85,29.57,10.0,NE,3.5,-,N/A,,Scattered Clouds,50,2012-10-19 22:13:00
6:33 PM,48.9,45.3,87,29.57,10.0,NNE,5.8,-,N/A,,Scattered Clouds,30,2012-10-19 22:33:00
6:53 PM,47.3,45.1,92,29.57,10.0,NNE,6.9,-,N/A,,Mostly Cloudy,20,2012-10-19 22:53:00
7:13 PM,46.6,44.8,93,29.57,10.0,NE,5.8,-,N/A,,Mostly Cloudy,40,2012-10-19 23:13:00
7:32 PM,46.4,44.2,92,29.58,10.0,NE,6.9,-,N/A,,Overcast,40,2012-10-19 23:32:00
7:53 PM,45.7,43.9,93,29.58,5.0,NNW,5.8,-,N/A,,Overcast,340,2012-10-19 23:53:00
8:13 PM,45.3,43.7,94,29.58,5.0,North,6.9,-,N/A,,Overcast,10,2012-10-20 00:13:00
8:32 PM,45.0,43.5,95,29.58,4.0,North,5.8,-,N/A,,Overcast,10,2012-10-20 00:32:00
8:53 PM,45.0,43.3,94,29.58,7.0,North,4.6,-,N/A,,Overcast,360,2012-10-20 00:53:00
9:13 PM,44.1,42.6,95,29.58,3.0,NNE,6.9,-,N/A,,Scattered Clouds,20,2012-10-20 01:13:00
9:33 PM,42.8,41.2,94,29.59,1.2,Calm,Calm,-,N/A,,Scattered Clouds,0,2012-10-20 01:33:00
9:53 PM,42.4,41.0,95,29.59,2.5,NNE,5.8,-,N/A,,Scattered Clouds,20,2012-10-20 01:53:00
10:13 PM,42.8,41.2,94,29.59,2.5,NNE,5.8,-,N/A,,Scattered Clouds,20,2012-10-20 02:13:00
10:33 PM,42.8,41.2,94,29.59,3.0,North,4.6,-,N/A,,Scattered Clouds,360,2012-10-20 02:33:00
10:53 PM,41.0,39.6,95,29.59,2.0,NNE,3.5,-,N/A,,Mostly Cloudy,30,2012-10-20 02:53:00
11:13 PM,41.5,40.1,95,29.59,2.5,NNE,5.8,-,N/A,,Mostly Cloudy,20,2012-10-20 03:13:00
11:33 PM,41.2,39.7,95,29.58,1.5,Calm,Calm,-,N/A,,Scattered Clouds,0,2012-10-20 03:33:00
11:52 PM,40.8,39.4,95,29.58,0.8,NNE,4.6,-,N/A,,Mostly Cloudy,20,2012-10-20 03:52:00